Content
SEND FEEDBACK

Daily
Averages
Monthly
Summary
United States of America

ASHEVILLE, NORTH CAROLINA


Home > North America > United States > North Carolina
Elevation: 2240 feet     Latitude: 35 36N     Longitude: 082 32W

WEATHER
 
SELECT A DAY
Number of Records: 226,720;   Date Range: 1/1/95 - 9/16/14
 
SHARE

PRINT THIS DATA

[ ← Previous Day ]
WEATHER ALMANAC - JUNE 25, 2013
[ Next Day → ]
[ °C ]   °F
We're sorry. There is no daily almanac available for Asheville, North Carolina on June 25, 2013.
WEATHER BY HOUR - JUNE 25, 2013
[ °C ]   °F
Local TimeTemperatureDewpointHumidityBarometerVisibilityWind DirectionWind SpeedGust SpeedPrecipitationEventsConditions
1:54 AM66.9 °F64.9 °F93 %30.15 in10.0 miNNW (340°)5.8 mphClear
2:40 AM66.2 °F64.4 °F94 %30.21 in10.0 miNNW (340°)3.5 mphPartly Cloudy
2:54 AM66.0 °F64.9 °F96 %30.14 in10.0 miCalmClear
3:51 AM64.4 °F64.4 °F100 %30.19 in10.0 miCalmScattered Clouds
3:54 AM66.0 °F64.0 °F93 %30.12 in10.0 miSW (230°)3.5 mphMostly Cloudy
4:10 AM64.4 °F64.4 °F100 %30.20 in10.0 miCalmMostly Cloudy
4:27 AM64.4 °F62.6 °F94 %30.20 in10.0 miCalmScattered Clouds
4:54 AM64.9 °F63.0 °F93 %30.11 in10.0 miCalmClear
5:54 AM63.0 °F62.1 °F97 %30.13 in10.0 miSSW (210°)4.6 mphClear
6:27 AM62.6 °F62.6 °F100 %30.21 in10.0 miNNW (330°)5.8 mphScattered Clouds
6:38 AM62.6 °F62.6 °F100 %30.22 in10.0 miNW (320°)3.5 mphMostly Cloudy
6:54 AM64.0 °F63.0 °F96 %30.14 in10.0 miCalmOvercast
7:06 AM64.4 °F62.6 °F94 %30.22 in10.0 miCalmOvercast
7:54 AM66.9 °F64.9 °F93 %30.15 in7.0 miNNW (340°)3.5 mphOvercast
8:24 AM66.2 °F64.4 °F94 %30.23 in1.8 miCalmOvercast
8:28 AM66.2 °F66.2 °F100 %30.23 in1.2 miCalmOvercast
8:45 AM66.2 °F64.4 °F94 %30.23 in2.0 miCalmOvercast
8:54 AM66.9 °F66.0 °F97 %30.16 in4.0 miCalmOvercast
9:04 AM68.0 °F66.2 °F94 %30.23 in2.0 miCalmOvercast
9:32 AM69.8 °F66.2 °F88 %30.24 in2.0 miCalmOvercast
9:54 AM72.0 °F66.9 °F84 %30.16 in10.0 miWNW (290°)3.5 mphScattered Clouds
10:54 AM75.0 °F66.9 °F76 %30.15 in10.0 miCalmMostly Cloudy
11:54 AM80.1 °F64.9 °F60 %30.14 in10.0 miWest (280°)4.6 mphPartly Cloudy
12:54 PM79.0 °F64.9 °F62 %30.13 in10.0 miWest (270°)4.6 mph0.01 inOvercast
1:54 PM80.1 °F66.0 °F62 %30.11 in10.0 miVariable4.6 mphScattered Clouds
2:54 PM80.1 °F66.0 °F62 %30.08 in10.0 miSSE (160°)9.2 mphPartly Cloudy
3:54 PM80.1 °F64.0 °F58 %30.07 in10.0 miCalmMostly Cloudy
4:54 PM75.0 °F64.9 °F71 %30.09 in10.0 miWSW (240°)3.5 mph0.00 inRainLight Rain
5:54 PM73.9 °F66.0 °F76 %30.07 in10.0 miCalm0.00 inScattered Clouds
6:54 PM71.1 °F66.0 °F84 %30.05 in10.0 miWSW (250°)4.6 mphClear
7:54 PM73.0 °F66.0 °F79 %30.07 in10.0 miCalmClear
8:54 PM72.0 °F66.0 °F81 %30.07 in10.0 miSSE (150°)3.5 mphMostly Cloudy
9:54 PM70.0 °F66.0 °F87 %30.06 in10.0 miSouth (170°)3.5 mph0.00 inClear
10:54 PM69.1 °F66.0 °F90 %30.06 in10.0 miCalmClear
11:54 PM66.9 °F66.0 °F97 %30.06 in10.0 miCalmClear
Hourly data recorded from KAVL, located miles away from Asheville, North Carolina







STORIES FROM OUR PARTNERS